Location: Austin
(30.3000°N, 97.7500°W)
Time: 23:23:40
(UTC-05:00)

NOSS 2-2 (C) - Pass Details

Date: 08 April 2026
Orbit: 377 x 1687 km, 63.3° (Epoch: 20 April)

Event Time Altitude Azimuth Distance (km) Brightness Sun altitude
Rises 20:48:25 0° 336° (NNW) 2,756 7.5 -12.2°
Reaches altitude 10° 20:50:22 10° 340° (NNW) 1,994 6.7 -12.6°
Maximum altitude 20:54:50 62° 62° (ENE) 872 4.1 -13.5°
Enters shadow 21:00:06 15° 140° (SE) 2,405 6.1 -14.6°
